New York JFK, NY

11:48 PM EDT on July 23, 2017 (GMT -0400)
Kennedy International

Weather History for KJFK - August, 2012

Change the Weather History Date:

Wednesday, August 22, 2012

  Actual Average Record
Temperature  
Mean Temperature 75 °F 74 °F  
Max Temperature 82 °F 81 °F 93 °F (1976)
Min Temperature 67 °F 67 °F 56 °F (1982)
Degree Days  
Heating Degree Days 0 0  
Month to date heating degree days 0 0  
Since 1 June heating degree days 18 21  
Since 1 July heating degree days 0 0  
Cooling Degree Days 10 9  
Month to date cooling degree days 272 230  
Year to date cooling degree days 968 785  
Since 1 June cooling degree days 895 750  
Growing Degree Days 24 (Base 50)    
Moisture  
Dew Point 63 °F    
Average Humidity 68    
Maximum Humidity 84    
Minimum Humidity 51    
Precipitation  
Precipitation 0.00 in 0.12 in 2.00 in (1994)
Month to date precipitation 3.41 2.72  
Year to date precipitation 26.46 28.00  
Snow  
Snow 0.00 in 0.00 in - ()
Month to date snowfall 0.0 0.0  
Since 1 July snowfall 0.0 0.0  
Snow Depth 0.00 in    
Sea Level Pressure  
Sea Level Pressure 30.13 in    
Wind  
Wind Speed 7 mph (SSW)    
Max Wind Speed 16 mph    
Max Gust Speed 20 mph    
Visibility 10 miles    
Events      
T = Trace of Precipitation, MM = Missing Value Source: NWS Daily Summary

Daily Weather History Graph

Daily Weather History Graph

Search for Another Location

Airport or City:

Trip Planner

Search our weather history database for the weather conditions in past years. The results will help you decide how hot, cold, wet, or windy it might be!

Date:

Astronomy

Aug. 22, 2012 Rise Set
Actual Time 6:12 AM EDT 7:42 PM EDT
Civil Twilight 5:44 AM EDT 8:10 PM EDT
Nautical Twilight 5:09 AM EDT 8:45 PM EDT
Astronomical Twilight 4:32 AM EDT 9:21 PM EDT
Moon 11:51 AM EDT (8/22) 10:19 PM EDT (8/22)
Length of Visible Light 14h 26m
Length of Day
13h 29m
Waxing Crescent, 29% of the Moon is Illuminated
Aug 22
Waxing Crescent
Aug 24
First Quarter
Aug 31
Full
Sep 8
Last Quarter
Sep 15
New

Hourly Weather History & Observations

Time (EDT) Temp. Heat Index Dew Point Humidity Pressure Visibility Wind Dir Wind Speed Gust Speed Precip Events Conditions
12:51 AM 71.1 °F - 63.0 °F 75% 30.10 in 10.0 mi WSW 6.9 mph - N/A   Scattered Clouds
1:51 AM 68.0 °F - 63.0 °F 84% 30.10 in 10.0 mi WSW 6.9 mph - N/A   Scattered Clouds
2:51 AM 70.0 °F - 63.0 °F 78% 30.11 in 10.0 mi West 5.8 mph - N/A   Scattered Clouds
3:51 AM 70.0 °F - 63.0 °F 78% 30.11 in 10.0 mi West 5.8 mph - N/A   Partly Cloudy
4:51 AM 69.1 °F - 63.0 °F 81% 30.11 in 10.0 mi West 3.5 mph - N/A   Partly Cloudy
5:51 AM 69.1 °F - 63.0 °F 81% 30.11 in 10.0 mi Calm Calm - N/A   Mostly Cloudy
6:51 AM 68.0 °F - 63.0 °F 84% 30.12 in 9.0 mi Calm Calm - N/A   Mostly Cloudy
7:51 AM 73.0 °F - 64.0 °F 73% 30.14 in 10.0 mi Calm Calm - N/A   Mostly Cloudy
8:51 AM 75.9 °F - 64.0 °F 67% 30.14 in 10.0 mi Calm Calm - N/A   Mostly Cloudy
9:51 AM 79.0 °F - 61.0 °F 54% 30.15 in 10.0 mi Calm Calm - N/A   Mostly Cloudy
10:51 AM 80.1 °F 81.9 °F 64.9 °F 60% 30.16 in 10.0 mi SSW 8.1 mph - N/A   Mostly Cloudy
11:51 AM 80.1 °F 81.2 °F 62.1 °F 54% 30.16 in 10.0 mi South 9.2 mph - N/A   Mostly Cloudy
12:51 PM 80.1 °F 81.2 °F 62.1 °F 54% 30.16 in 10.0 mi South 10.4 mph - N/A   Mostly Cloudy
1:51 PM 81.0 °F 82.2 °F 63.0 °F 54% 30.15 in 10.0 mi South 12.7 mph - N/A   Mostly Cloudy
2:51 PM 81.0 °F 81.6 °F 60.1 °F 49% 30.14 in 10.0 mi South 12.7 mph - N/A   Mostly Cloudy
3:51 PM 80.1 °F 81.1 °F 61.0 °F 52% 30.13 in 10.0 mi SSE 12.7 mph - N/A   Mostly Cloudy
4:51 PM 79.0 °F - 62.1 °F 56% 30.13 in 10.0 mi SSE 10.4 mph - N/A   Mostly Cloudy
5:51 PM 78.1 °F - 63.0 °F 60% 30.12 in 10.0 mi South 11.5 mph - N/A   Mostly Cloudy
6:51 PM 75.9 °F - 63.0 °F 64% 30.12 in 10.0 mi South 10.4 mph - N/A   Mostly Cloudy
7:51 PM 75.0 °F - 64.0 °F 69% 30.12 in 10.0 mi SSE 8.1 mph - N/A   Scattered Clouds
8:51 PM 73.9 °F - 64.0 °F 71% 30.14 in 10.0 mi South 8.1 mph - N/A   Scattered Clouds
9:51 PM 73.0 °F - 64.0 °F 73% 30.15 in 10.0 mi SSW 8.1 mph - N/A   Mostly Cloudy
10:51 PM 73.0 °F - 66.0 °F 79% 30.15 in 10.0 mi SW 6.9 mph - N/A   Scattered Clouds
11:51 PM 72.0 °F - 66.0 °F 81% 30.15 in 10.0 mi SW 6.9 mph - N/A   Partly Cloudy